PBD9818 UWKD-UWSG

Flight info

Callsign PBD9818
Flight time 0h 56m
Altitude 32000
Route DCT SONUM T789 OGRER DCT
Aircraft B738/M-SDE2E3FGHIRWXY/LB1

Departure

Time 2026-05-07 17:23
Airport Kazan International Airport (UWKD)

Arrival

Time 2026-05-07 18:19
Airport Gagarin International Airport (UWSG)
Time Latitude Longitude Altitude Speed Heading
2026-05-07 16:46 55.60634 49.29797 419 ft 0 kts 34°
2026-05-07 17:07 55.60635 49.29799 419 ft 1 kts 34°
2026-05-07 17:08 55.60663 49.29818 419 ft 2 kts 348°
2026-05-07 17:08 55.60686 49.29796 419 ft 3 kts 325°
2026-05-07 17:08 55.60714 49.29737 419 ft 6 kts 303°
2026-05-07 17:08 55.60739 49.29670 419 ft 6 kts 303°
2026-05-07 17:09 55.60764 49.29605 419 ft 6 kts 303°
2026-05-07 17:09 55.60786 49.29546 419 ft 5 kts 304°
2026-05-07 17:09 55.60808 49.29490 419 ft 6 kts 303°
2026-05-07 17:09 55.60806 49.29422 419 ft 5 kts 224°
2026-05-07 17:10 55.60768 49.29374 419 ft 7 kts 216°
2026-05-07 17:10 55.60724 49.29317 419 ft 8 kts 214°
2026-05-07 17:10 55.60672 49.29254 419 ft 9 kts 214°
2026-05-07 17:10 55.60614 49.29180 419 ft 10 kts 224°
2026-05-07 17:11 55.60578 49.29063 419 ft 11 kts 264°
2026-05-07 17:11 55.60577 49.28919 419 ft 12 kts 272°
2026-05-07 17:11 55.60586 49.28761 419 ft 13 kts 276°
2026-05-07 17:11 55.60602 49.28598 419 ft 13 kts 298°
2026-05-07 17:12 55.60650 49.28467 419 ft 12 kts 305°
2026-05-07 17:12 55.60717 49.28300 419 ft 23 kts 305°
2026-05-07 17:12 55.60803 49.28076 419 ft 20 kts 303°
2026-05-07 17:12 55.60883 49.27867 419 ft 20 kts 303°
2026-05-07 17:13 55.60959 49.27669 419 ft 19 kts 304°
2026-05-07 17:13 55.61035 49.27481 419 ft 18 kts 306°
2026-05-07 17:13 55.61106 49.27297 419 ft 17 kts 305°
2026-05-07 17:13 55.61173 49.27122 419 ft 16 kts 303°
2026-05-07 17:14 55.61238 49.26953 419 ft 16 kts 304°
2026-05-07 17:14 55.61301 49.26792 419 ft 15 kts 304°
2026-05-07 17:14 55.61361 49.26638 419 ft 14 kts 304°
2026-05-07 17:14 55.61418 49.26490 419 ft 14 kts 304°
2026-05-07 17:15 55.61474 49.26350 419 ft 13 kts 305°
2026-05-07 17:15 55.61527 49.26217 419 ft 12 kts 304°
2026-05-07 17:15 55.61572 49.26088 419 ft 12 kts 302°
2026-05-07 17:15 55.61619 49.25966 419 ft 11 kts 304°
2026-05-07 17:16 55.61662 49.25855 419 ft 10 kts 304°
2026-05-07 17:16 55.61705 49.25748 419 ft 10 kts 304°
2026-05-07 17:16 55.61744 49.25648 419 ft 9 kts 304°
2026-05-07 17:16 55.61782 49.25551 419 ft 10 kts 305°
2026-05-07 17:17 55.61827 49.25435 419 ft 11 kts 303°
2026-05-07 17:17 55.61850 49.25319 419 ft 9 kts 258°
2026-05-07 17:17 55.61807 49.25239 419 ft 8 kts 213°
2026-05-07 17:17 55.61802 49.25233 419 ft 0 kts 213°
2026-05-07 17:20 55.61801 49.25232 419 ft 1 kts 213°
2026-05-07 17:21 55.61747 49.25169 419 ft 10 kts 213°
2026-05-07 17:21 55.61688 49.25148 419 ft 7 kts 146°
2026-05-07 17:21 55.61655 49.25227 419 ft 8 kts 124°
2026-05-07 17:21 55.61578 49.25426 419 ft 46 kts 123°
2026-05-07 17:22 55.61277 49.26216 419 ft 108 kts 124°
2026-05-07 17:22 55.60744 49.27576 423 ft 158 kts 124°
2026-05-07 17:22 55.60038 49.29254 713 ft 176 kts 126°
2026-05-07 17:22 55.59317 49.30972 989 ft 181 kts 121°
2026-05-07 17:23 55.58628 49.32884 1341 ft 188 kts 119°
2026-05-07 17:23 55.57899 49.34878 1672 ft 199 kts 120°
2026-05-07 17:23 55.57104 49.36956 2019 ft 214 kts 121°
2026-05-07 17:23 55.56228 49.39208 2421 ft 231 kts 122°
2026-05-07 17:24 55.55308 49.41560 2860 ft 239 kts 122°
2026-05-07 17:24 55.54162 49.43712 3381 ft 250 kts 146°
2026-05-07 17:24 55.52486 49.44675 3931 ft 259 kts 175°
2026-05-07 17:24 55.50728 49.44211 4470 ft 263 kts 199°
2026-05-07 17:25 55.49114 49.42649 5012 ft 267 kts 219°
2026-05-07 17:25 55.47974 49.40129 5541 ft 270 kts 248°
2026-05-07 17:25 55.47372 49.37009 6095 ft 270 kts 252°
2026-05-07 17:25 55.46404 49.34185 6619 ft 275 kts 223°
2026-05-07 17:26 55.44843 49.32410 7194 ft 276 kts 204°
2026-05-07 17:26 55.43018 49.31167 7739 ft 280 kts 200°
2026-05-07 17:26 55.41158 49.29966 7983 ft 292 kts 201°
2026-05-07 17:26 55.39280 49.28639 8068 ft 292 kts 203°
2026-05-07 17:27 55.37397 49.27212 8522 ft 302 kts 204°
2026-05-07 17:27 55.35428 49.25682 9026 ft 316 kts 204°
2026-05-07 17:27 55.33385 49.24086 9629 ft 328 kts 205°
2026-05-07 17:27 55.31289 49.22452 10155 ft 336 kts 205°
2026-05-07 17:28 55.29146 49.20789 10634 ft 338 kts 205°
2026-05-07 17:28 55.26998 49.19129 11143 ft 341 kts 204°
2026-05-07 17:28 55.24847 49.17469 11636 ft 343 kts 204°
2026-05-07 17:28 55.22656 49.15782 12112 ft 344 kts 204°
2026-05-07 17:29 55.20483 49.14111 12615 ft 345 kts 204°
2026-05-07 17:29 55.18272 49.12413 13109 ft 347 kts 204°
2026-05-07 17:29 55.16071 49.10585 13603 ft 357 kts 208°
2026-05-07 17:29 55.13863 49.08506 14103 ft 368 kts 210°
2026-05-07 17:30 55.11614 49.06247 14595 ft 378 kts 211°
2026-05-07 17:30 55.09346 49.03919 15132 ft 387 kts 211°
2026-05-07 17:30 55.07045 49.01558 15743 ft 393 kts 211°
2026-05-07 17:30 55.04630 48.99102 16371 ft 398 kts 211°
2026-05-07 17:31 55.02261 48.96709 16979 ft 403 kts 211°
2026-05-07 17:31 54.99825 48.94267 17601 ft 407 kts 211°
2026-05-07 17:31 54.97371 48.91816 18216 ft 410 kts 211°
2026-05-07 17:31 54.94901 48.89357 18847 ft 413 kts 210°
2026-05-07 17:32 54.92407 48.86879 19452 ft 417 kts 210°
2026-05-07 17:32 54.89866 48.84360 20077 ft 421 kts 210°
2026-05-07 17:32 54.87322 48.81841 20664 ft 422 kts 210°
2026-05-07 17:32 54.84763 48.79311 20922 ft 428 kts 210°
2026-05-07 17:33 54.82223 48.76804 20920 ft 424 kts 211°
2026-05-07 17:33 54.79671 48.74290 20932 ft 423 kts 211°
2026-05-07 17:33 54.77092 48.71754 21101 ft 425 kts 210°
2026-05-07 17:33 54.74598 48.69306 21590 ft 429 kts 211°
2026-05-07 17:34 54.71930 48.66690 22125 ft 433 kts 210°
2026-05-07 17:34 54.69318 48.64134 22645 ft 438 kts 210°
2026-05-07 17:34 54.66645 48.61523 23150 ft 440 kts 210°
2026-05-07 17:34 54.63982 48.58926 23665 ft 441 kts 210°
2026-05-07 17:35 54.61311 48.56324 24202 ft 444 kts 210°
2026-05-07 17:35 54.58644 48.53730 24735 ft 446 kts 210°
2026-05-07 17:35 54.55936 48.51100 25269 ft 449 kts 210°
2026-05-07 17:35 54.53190 48.48436 25807 ft 453 kts 210°
2026-05-07 17:36 54.50453 48.45785 26339 ft 454 kts 210°
2026-05-07 17:36 54.47720 48.43143 26878 ft 452 kts 211°
2026-05-07 17:36 54.44999 48.40517 27412 ft 450 kts 210°
2026-05-07 17:36 54.42272 48.37890 27894 ft 450 kts 210°
2026-05-07 17:37 54.39563 48.35283 27962 ft 452 kts 210°
2026-05-07 17:37 54.36808 48.32635 27974 ft 448 kts 210°
2026-05-07 17:37 54.34123 48.30059 27968 ft 447 kts 210°
2026-05-07 17:37 54.31393 48.27443 27968 ft 449 kts 209°
2026-05-07 17:38 54.28706 48.24871 27966 ft 450 kts 209°
2026-05-07 17:38 54.25975 48.22271 27971 ft 450 kts 208°
2026-05-07 17:38 54.23169 48.19838 28089 ft 448 kts 205°
2026-05-07 17:38 54.20340 48.17616 28442 ft 453 kts 204°
2026-05-07 17:39 54.17450 48.15449 28799 ft 458 kts 204°
2026-05-07 17:39 54.14518 48.13290 29154 ft 463 kts 204°
2026-05-07 17:39 54.11579 48.11129 29493 ft 467 kts 203°
2026-05-07 17:39 54.08605 48.08935 29851 ft 465 kts 204°
2026-05-07 17:40 54.05645 48.06739 30205 ft 463 kts 204°
2026-05-07 17:40 54.02692 48.04538 30553 ft 462 kts 204°
2026-05-07 17:40 53.99783 48.02360 30894 ft 461 kts 204°
2026-05-07 17:40 53.96844 48.00155 31232 ft 460 kts 204°
2026-05-07 17:41 53.93948 47.97980 31559 ft 460 kts 204°
2026-05-07 17:41 53.91026 47.95786 31878 ft 459 kts 204°
2026-05-07 17:41 53.85206 47.91436 31941 ft 457 kts 203°
2026-05-07 17:42 53.79221 47.87917 31928 ft 456 kts 196°
2026-05-07 17:42 53.73091 47.85358 31920 ft 457 kts 193°
2026-05-07 17:43 53.66958 47.82618 31933 ft 454 kts 199°
2026-05-07 17:43 53.61069 47.78859 31935 ft 454 kts 203°
2026-05-07 17:44 53.55246 47.74855 31939 ft 455 kts 203°
2026-05-07 17:44 53.49403 47.70859 31932 ft 455 kts 203°
2026-05-07 17:45 53.43693 47.66439 31930 ft 450 kts 208°
2026-05-07 17:45 53.38206 47.61410 31929 ft 453 kts 210°
2026-05-07 17:46 53.32722 47.56284 31946 ft 454 kts 210°
2026-05-07 17:46 53.27206 47.51210 31940 ft 453 kts 210°
2026-05-07 17:47 53.21723 47.46243 31862 ft 450 kts 210°
2026-05-07 17:47 53.18982 47.43782 31485 ft 444 kts 210°
2026-05-07 17:47 53.16282 47.41365 31124 ft 435 kts 210°
2026-05-07 17:48 53.13662 47.39029 30730 ft 429 kts 210°
2026-05-07 17:48 53.11039 47.36693 30370 ft 421 kts 210°
2026-05-07 17:48 53.08506 47.34443 30107 ft 415 kts 208°
2026-05-07 17:48 53.05961 47.32185 29840 ft 416 kts 208°
2026-05-07 17:49 53.03421 47.29935 29558 ft 412 kts 209°
2026-05-07 17:49 53.00928 47.27730 29165 ft 407 kts 209°
2026-05-07 17:49 52.98450 47.25541 28684 ft 403 kts 209°
2026-05-07 17:49 52.95991 47.23373 28171 ft 401 kts 209°
2026-05-07 17:50 52.93552 47.21223 27655 ft 398 kts 209°
2026-05-07 17:50 52.91105 47.19068 27091 ft 397 kts 209°
2026-05-07 17:50 52.88682 47.16939 26296 ft 403 kts 209°
2026-05-07 17:50 52.86189 47.14749 25603 ft 404 kts 209°
2026-05-07 17:51 52.83735 47.12597 24962 ft 404 kts 209°
2026-05-07 17:51 52.81248 47.10421 24402 ft 402 kts 209°
2026-05-07 17:51 52.78806 47.08288 23873 ft 399 kts 209°
2026-05-07 17:51 52.76384 47.06176 23347 ft 397 kts 209°
2026-05-07 17:52 52.73963 47.04068 22824 ft 395 kts 209°
2026-05-07 17:52 52.71531 47.01952 22294 ft 393 kts 208°
2026-05-07 17:52 52.69124 46.99860 21771 ft 391 kts 208°
2026-05-07 17:52 52.66755 46.97805 21256 ft 388 kts 208°
2026-05-07 17:53 52.64392 46.95755 20740 ft 386 kts 208°
2026-05-07 17:53 52.62020 46.93700 20217 ft 385 kts 208°
2026-05-07 17:53 52.59688 46.91684 19933 ft 376 kts 208°
2026-05-07 17:53 52.57357 46.89670 19901 ft 377 kts 208°
2026-05-07 17:54 52.55049 46.87677 19942 ft 381 kts 208°
2026-05-07 17:54 52.52685 46.85640 19952 ft 382 kts 208°
2026-05-07 17:54 52.50355 46.83632 19931 ft 381 kts 208°
2026-05-07 17:54 52.48032 46.81623 19935 ft 381 kts 208°
2026-05-07 17:55 52.45683 46.79599 19934 ft 380 kts 208°
2026-05-07 17:55 52.43348 46.77595 19900 ft 382 kts 208°
2026-05-07 17:55 52.40976 46.75595 19461 ft 383 kts 206°
2026-05-07 17:55 52.38531 46.74000 18976 ft 381 kts 198°
2026-05-07 17:56 52.35980 46.72783 18422 ft 381 kts 194°
2026-05-07 17:56 52.33417 46.71753 17795 ft 380 kts 193°
2026-05-07 17:56 52.30901 46.70758 17156 ft 372 kts 193°
2026-05-07 17:56 52.28437 46.69737 16474 ft 367 kts 194°
2026-05-07 17:57 52.25992 46.68667 15707 ft 364 kts 195°
2026-05-07 17:57 52.24389 46.67944 15203 ft 362 kts 195°
2026-05-07 17:57 52.21180 46.66457 14180 ft 358 kts 195°
2026-05-07 17:57 52.18825 46.65347 13419 ft 355 kts 195°
2026-05-07 17:58 52.16460 46.64238 12653 ft 352 kts 195°
2026-05-07 17:58 52.14127 46.63148 11865 ft 349 kts 195°
2026-05-07 17:58 52.11843 46.62078 11277 ft 342 kts 196°
2026-05-07 17:58 52.09602 46.61024 10943 ft 326 kts 195°
2026-05-07 17:59 52.07482 46.60031 10611 ft 312 kts 195°
2026-05-07 17:59 52.05432 46.59086 10301 ft 302 kts 195°
2026-05-07 17:59 52.03435 46.58166 9901 ft 294 kts 195°
2026-05-07 17:59 52.01489 46.57266 9363 ft 294 kts 195°
2026-05-07 18:00 51.99527 46.56354 8749 ft 296 kts 195°
2026-05-07 18:00 51.97540 46.55436 8119 ft 297 kts 195°
2026-05-07 18:00 51.95568 46.54528 7500 ft 297 kts 195°
2026-05-07 18:00 51.93597 46.53622 6880 ft 297 kts 195°
2026-05-07 18:01 51.91626 46.52716 6283 ft 297 kts 195°
2026-05-07 18:01 51.89646 46.51806 5649 ft 296 kts 195°
2026-05-07 18:01 51.87698 46.50913 5079 ft 292 kts 195°
2026-05-07 18:01 51.85778 46.50036 4917 ft 273 kts 195°
2026-05-07 18:02 51.82419 46.48504 4926 ft 238 kts 194°
2026-05-07 18:02 51.80843 46.47786 4915 ft 237 kts 194°
2026-05-07 18:02 51.79243 46.47058 4547 ft 241 kts 194°
2026-05-07 18:03 51.77622 46.46321 4109 ft 243 kts 194°
2026-05-07 18:03 51.76009 46.45594 3674 ft 244 kts 194°
2026-05-07 18:03 51.74371 46.44865 3238 ft 245 kts 194°
2026-05-07 18:03 51.72763 46.44028 2815 ft 245 kts 205°
2026-05-07 18:04 51.71425 46.42387 2343 ft 245 kts 238°
2026-05-07 18:04 51.70785 46.39901 2021 ft 234 kts 265°
2026-05-07 18:04 51.70715 46.37394 1993 ft 217 kts 275°
2026-05-07 18:04 51.70818 46.35105 1991 ft 198 kts 277°
2026-05-07 18:05 51.70885 46.33014 1997 ft 181 kts 275°
2026-05-07 18:05 51.70922 46.30924 1845 ft 184 kts 274°
2026-05-07 18:05 51.70946 46.28907 1589 ft 179 kts 274°
2026-05-07 18:05 51.70983 46.26918 1416 ft 178 kts 276°
2026-05-07 18:06 51.71065 46.24969 1377 ft 176 kts 274°
2026-05-07 18:06 51.71058 46.22988 1699 ft 177 kts 271°
2026-05-07 18:06 51.71004 46.21035 2341 ft 173 kts 270°
2026-05-07 18:06 51.70940 46.18942 2381 ft 219 kts 270°
2026-05-07 18:07 51.70895 46.16105 1595 ft 280 kts 271°
2026-05-07 18:07 51.70983 46.13000 1353 ft 270 kts 284°
2026-05-07 18:07 51.71764 46.10490 1685 ft 235 kts 313°
2026-05-07 18:07 51.72902 46.08878 2224 ft 213 kts 328°
2026-05-07 18:08 51.74163 46.07729 2785 ft 209 kts 340°
2026-05-07 18:08 51.75589 46.07043 3011 ft 218 kts 354°
2026-05-07 18:08 51.77114 46.06976 2998 ft 218 kts
2026-05-07 18:08 51.78555 46.07621 2996 ft 219 kts 26°
2026-05-07 18:09 51.79840 46.08964 2996 ft 219 kts 40°
2026-05-07 18:09 51.80830 46.10795 2993 ft 221 kts 58°
2026-05-07 18:09 51.81397 46.13099 2997 ft 224 kts 75°
2026-05-07 18:09 51.81583 46.15602 2991 ft 226 kts 88°
2026-05-07 18:10 51.81474 46.18131 2997 ft 227 kts 93°
2026-05-07 18:10 51.81291 46.20658 2994 ft 226 kts 93°
2026-05-07 18:10 51.81122 46.23189 2995 ft 226 kts 92°
2026-05-07 18:10 51.80970 46.25723 2994 ft 227 kts 92°
2026-05-07 18:11 51.80821 46.28239 2994 ft 227 kts 92°
2026-05-07 18:11 51.80721 46.29925 2995 ft 226 kts 92°
2026-05-07 18:11 51.80524 46.33294 2995 ft 227 kts 91°
2026-05-07 18:11 51.80383 46.35818 2995 ft 226 kts 91°
2026-05-07 18:12 51.80290 46.38348 2995 ft 225 kts 89°
2026-05-07 18:12 51.80232 46.40863 2995 ft 224 kts 89°
2026-05-07 18:12 51.80170 46.43366 2995 ft 223 kts 89°
2026-05-07 18:12 51.80101 46.45876 2994 ft 224 kts 89°
2026-05-07 18:13 51.80035 46.48366 2994 ft 224 kts 89°
2026-05-07 18:13 51.79968 46.50899 3006 ft 226 kts 90°
2026-05-07 18:13 51.79563 46.53348 2925 ft 232 kts 120°
2026-05-07 18:13 51.78339 46.54993 2735 ft 235 kts 159°
2026-05-07 18:14 51.76741 46.55408 2583 ft 234 kts 179°
2026-05-07 18:14 51.75155 46.54861 2376 ft 232 kts 211°
2026-05-07 18:14 51.74029 46.53149 2198 ft 224 kts 241°
2026-05-07 18:14 51.73313 46.50956 2025 ft 217 kts 245°
2026-05-07 18:15 51.72623 46.48835 1991 ft 211 kts 244°
2026-05-07 18:15 51.71910 46.46744 1990 ft 212 kts 243°
2026-05-07 18:15 51.71204 46.44684 1988 ft 210 kts 244°
2026-05-07 18:15 51.70709 46.42553 1986 ft 199 kts 264°
2026-05-07 18:16 51.70671 46.40370 2005 ft 197 kts 275°
2026-05-07 18:16 51.70744 46.38225 1980 ft 185 kts 276°
2026-05-07 18:16 51.70799 46.36174 1994 ft 182 kts 275°
2026-05-07 18:16 51.70844 46.34223 1951 ft 175 kts 275°
2026-05-07 18:17 51.70893 46.32309 1588 ft 167 kts 275°
2026-05-07 18:17 51.70938 46.30511 1379 ft 154 kts 275°
2026-05-07 18:17 51.70981 46.28802 1184 ft 151 kts 275°
2026-05-07 18:17 51.71022 46.27162 990 ft 146 kts 275°
2026-05-07 18:18 51.71061 46.25527 794 ft 145 kts 274°
2026-05-07 18:18 51.71101 46.23935 593 ft 143 kts 274°
2026-05-07 18:18 51.71146 46.22345 421 ft 138 kts 273°
2026-05-07 18:18 51.71166 46.20802 344 ft 140 kts 274°
2026-05-07 18:19 51.71218 46.19233 138 ft 139 kts 273°
2026-05-07 18:19 51.71242 46.17697 12 ft 130 kts 273°
2026-05-07 18:19 51.71278 46.16515 8 ft 75 kts 268°
2026-05-07 18:19 51.71288 46.15991 8 ft 26 kts 273°
2026-05-07 18:20 51.71297 46.15775 8 ft 13 kts 274°
2026-05-07 18:20 51.71309 46.15664 8 ft 11 kts 293°
2026-05-07 18:20 51.71299 46.15672 8 ft 8 kts 89°
2026-05-07 18:20 51.71295 46.15852 8 ft 29 kts 91°
2026-05-07 18:21 51.71288 46.16162 8 ft 26 kts 92°
2026-05-07 18:21 51.71282 46.16380 8 ft 15 kts 92°
2026-05-07 18:21 51.71299 46.16510 8 ft 11 kts 45°
2026-05-07 18:21 51.71370 46.16535 8 ft 8 kts
2026-05-07 18:22 51.71428 46.16539 8 ft 8 kts
2026-05-07 18:22 51.71465 46.16541 8 ft 7 kts
2026-05-07 18:22 51.71526 46.16573 8 ft 6 kts 48°
2026-05-07 18:22 51.71542 46.16639 8 ft 6 kts 85°
2026-05-07 18:23 51.71542 46.16715 8 ft 6 kts 92°
2026-05-07 18:23 51.71552 46.16779 8 ft 5 kts 47°
2026-05-07 18:23 51.71578 46.16824 8 ft 5 kts 47°
2026-05-07 18:23 51.71597 46.16860 8 ft 2 kts 48°
2026-05-07 18:24 51.71600 46.16867 8 ft 0 kts 48°